Weather History for KTVR - May, 2012

Change the Weather History Date:

Sunday, May 6, 2012

  Actual Average Record
Temperature  
Mean Temperature 78 °F 70 °F  
Max Temperature 90 °F 81 °F 93 °F (1952)
Min Temperature 66 °F 59 °F 41 °F (1957)
Degree Days  
Heating Degree Days 0 1  
Month to date heating degree days 0 6  
Since 1 July heating degree days 1824 2347  
Cooling Degree Days 13 6  
Month to date cooling degree days 78 32  
Year to date cooling degree days 328 150  
Growing Degree Days 28 (Base 50)    
Moisture  
Dew Point 68 °F    
Average Humidity 70    
Maximum Humidity 93    
Minimum Humidity 47    
Precipitation  
Precipitation 0.00 in 0.17 in 2.28 in (1960)
Month to date precipitation 0.05 1.06  
Year to date precipitation 20.52 21.40  
Sea Level Pressure  
Sea Level Pressure 29.93 in    
Wind  
Wind Speed 4 mph (SSE)    
Max Wind Speed 17 mph    
Max Gust Speed 23 mph    
Visibility 10 miles    
Events      
T = Trace of Precipitation, MM = Missing Value Source: NWS Daily Summary

Daily Weather History Graph

Daily Weather History Graph

Search for Another Location

Airport or City:

Trip Planner

Search our weather history database for the weather conditions in past years. The results will help you decide how hot, cold, wet, or windy it might be!

Date:

Astronomy

May. 06, 2012 Rise Set
Actual Time 6:12 AM CDT 7:49 PM CDT
Civil Twilight 5:46 AM CDT 8:15 PM CDT
Nautical Twilight 5:14 AM CDT 8:47 PM CDT
Astronomical Twilight 4:41 AM CDT 9:20 PM CDT
Moon 8:50 PM CDT (5/6) 6:26 AM CDT (5/6)
Length of Visible Light 14h 29m
Length of Day
13h 36m
Full, 100% of the Moon is Illuminated
May 6
Full
May 12
Last Quarter
May 20
New
May 28
First Quarter
Jun 4
Full

Hourly Weather History & Observations

Time (CDT) Temp. Heat Index Dew Point Humidity Pressure Visibility Wind Dir Wind Speed Gust Speed Precip Events Conditions
12:53 AM 73.0 °F - 68.0 °F 84% 29.93 in 10.0 mi South 3.5 mph - N/A   Clear
1:53 AM 69.1 °F - 66.9 °F 93% 29.94 in 10.0 mi East 3.5 mph - N/A   Clear
3:53 AM 68.0 °F - 66.0 °F 93% 29.94 in 10.0 mi SSE 3.5 mph - N/A   Clear
4:53 AM 68.0 °F - 66.0 °F 93% 29.94 in 8.0 mi South 3.5 mph - N/A   Clear
5:53 AM 68.0 °F - 66.0 °F 93% 29.94 in 8.0 mi South 3.5 mph - N/A   Clear
6:53 AM 68.0 °F - 66.0 °F 93% 29.97 in 5.0 mi Calm Calm - N/A   Clear
7:53 AM 73.0 °F - 69.1 °F 87% 29.98 in 10.0 mi Calm Calm - N/A   Clear
8:53 AM 78.1 °F - 71.1 °F 79% 29.98 in 10.0 mi Variable 3.5 mph - N/A   Clear
9:53 AM 81.0 °F 84.9 °F 71.1 °F 72% 29.98 in 10.0 mi SSW 3.5 mph - N/A   Clear
10:53 AM 84.0 °F 89.0 °F 71.1 °F 65% 30.00 in 10.0 mi Calm Calm - N/A   Clear
11:53 AM 84.0 °F 89.0 °F 71.1 °F 65% 29.99 in 10.0 mi ESE 8.1 mph - N/A   Mostly Cloudy
12:53 PM 88.0 °F 92.1 °F 69.1 °F 53% 29.96 in 10.0 mi East 4.6 mph - N/A   Scattered Clouds
1:53 PM 89.1 °F 92.1 °F 66.9 °F 48% 29.94 in 10.0 mi East 4.6 mph - N/A   Partly Cloudy
2:53 PM 89.1 °F 93.7 °F 69.1 °F 52% 29.91 in 10.0 mi East 4.6 mph - N/A   Clear
3:53 PM 88.0 °F 90.7 °F 66.9 °F 49% 29.89 in 10.0 mi SSE 5.8 mph - N/A   Clear
4:53 PM 87.1 °F 90.6 °F 68.0 °F 53% 29.88 in 10.0 mi SE 4.6 mph - N/A   Mostly Cloudy
5:53 PM 88.0 °F 91.4 °F 68.0 °F 51% 29.88 in 10.0 mi SE 5.8 mph - N/A   Scattered Clouds
6:53 PM 84.9 °F 88.8 °F 69.1 °F 59% 29.88 in 10.0 mi South 4.6 mph - N/A   Clear
7:53 PM 80.1 °F 82.9 °F 69.1 °F 69% 29.89 in 10.0 mi South 4.6 mph - N/A   Clear
8:53 PM 75.9 °F - 69.1 °F 79% 29.90 in 10.0 mi Calm Calm - N/A   Clear
9:53 PM 71.1 °F - 69.1 °F 93% 29.92 in 10.0 mi Calm Calm - N/A   Clear
10:53 PM 77.0 °F - 69.1 °F 76% 29.93 in 10.0 mi South 16.1 mph 23.0 mph N/A   Clear
11:53 PM 75.9 °F - 68.0 °F 76% 29.92 in 10.0 mi South 8.1 mph - N/A   Clear